,,Stat6,,Stat2,,Stat8,,Stat9,,Stat10,,Wind1,,Wind1,
time,status,PA1M_AVG,status,PR1M_SUM,status,RH1M_AVG,status,SR1M_AVG,status,TA1M_AVG,status,W1dAve1m,status,W1sAve1m,
2007-05-30, 00:00:00,VALID,918.035,VALID,0,VALID,100,VALID,-0.0509425,VALID,20.0205,VALID,61,VALID,0.252604,
2007-05-30, 00:01:00,VALID,918.046,VALID,0,VALID,100,VALID,-0.0169808,VALID,20.0076,VALID,61,VALID,0.261905,
2007-05-30, 00:02:00,VALID,918.043,VALID,0,VALID,100,VALID,-0.101885,VALID,20.0178,VALID,72,VALID,0.426599,
2007-05-30, 00:03:00,VALID,918.041,VALID,0,VALID,100,VALID,-0.0509425,VALID,20.0043,VALID,123,VALID,0.495617,
2007-05-30, 00:04:00,VALID,918.035,VALID,0,VALID,100,VALID,-0.101885,VALID,20.021,VALID,130,VALID,0.616815,
2007-05-30, 00:05:00,VALID,918.029,VALID,0,VALID,100,VALID,-0.0679233,VALID,20.031,VALID,143,VALID,0.5984,
2007-05-30, 00:06:00,VALID,918.018,VALID,0,VALID,100,VALID,-0.0849042,VALID,20.0338,VALID,145,VALID,0.674716,
2007-05-30, 00:07:00,VALID,918.018,VALID,0,VALID,100,VALID,-0.0849042,VALID,20.0305,VALID,149,VALID,0.671689,
2007-05-30, 00:08:00,VALID,918.006,VALID,0,VALID,100,VALID,-0.0509425,VALID,20.044,VALID,139,VALID,0.964931,
2007-05-30, 00:09:00,VALID,917.996,VALID,0,VALID,100,VALID,-0.0849042,VALID,20.0532,VALID,131,VALID,1.01674,
2007-05-30, 00:10:00,VALID,918,VALID,0,VALID,100,VALID,-0.0679233,VALID,20.0794,VALID,135,VALID,1.0066,
2007-05-30, 00:11:00,VALID,917.995,VALID,0,VALID,100,VALID,-0.0849042,VALID,20.0957,VALID,117,VALID,0.77089,
2007-05-30, 00:12:00,VALID,917.998,VALID,0,VALID,100,VALID,-0.0679233,VALID,20.0924,VALID,102,VALID,0.496185,
2007-05-30, 00:13:00,VALID,918.002,VALID,0,VALID,100,VALID,-0.0849042,VALID,20.0992,VALID,107,VALID,0.543555,
2007-05-30, 00:14:00,VALID,918.001,VALID,0,VALID,100,VALID,-0.0339617,VALID,20.0947,VALID,111,VALID,0.64008,
2007-05-30, 00:15:00,VALID,918.006,VALID,0,VALID,100,VALID,0,VALID,20.0974,VALID,103,VALID,0.573153,
2007-05-30, 00:16:00,VALID,918.017,VALID,0,VALID,100,VALID,-0.0169808,VALID,20.0974,VALID,100,VALID,0.570694,
2007-05-30, 00:17:00,VALID,918.021,VALID,0,VALID,100,VALID,0,VALID,20.0749,VALID,98,VALID,0.590216,
2007-05-30, 00:18:00,VALID,918.025,VALID,0,VALID,100,VALID,-0.0169808,VALID,20.059,VALID,84,VALID,0.75,
2007-05-30, 00:19:00,VALID,918.032,VALID,0,VALID,100,VALID,0,VALID,20.036,VALID,76,VALID,0.899414,
2007-05-30, 00:20:00,VALID,918.043,VALID,0,VALID,100,VALID,0.0169808,VALID,20.0163,VALID,74,VALID,1.08117,
2007-05-30, 00:21:00,VALID,918.042,VALID,0,VALID,100,VALID,0,VALID,20.0073,VALID,83,VALID,1.13572,
2007-05-30, 00:22:00,VALID,918.021,VALID,0,VALID,100,VALID,0,VALID,19.9811,VALID,91,VALID,1.07274,
2007-05-30, 00:23:00,VALID,918.017,VALID,0,VALID,100,VALID,0,VALID,19.9813,VALID,106,VALID,0.880632,
2007-05-30, 00:24:00,VALID,917.993,VALID,0,VALID,100,VALID,-0.0339617,VALID,19.9611,VALID,111,VALID,0.855755,
2007-05-30, 00:25:00,VALID,917.99,VALID,0,VALID,100,VALID,-0.0169808,VALID,19.9519,VALID,127,VALID,0.926491,
2007-05-30, 00:26:00,VALID,917.969,VALID,0,VALID,100,VALID,-0.0169808,VALID,19.9414,VALID,131,VALID,0.551525,
2007-05-30, 00:27:00,VALID,917.949,VALID,0,VALID,100,VALID,-0.0169808,VALID,19.9686,VALID,144,VALID,0.601004,
2007-05-30, 00:28:00,VALID,917.926,VALID,0,VALID,100,VALID,-0.0169808,VALID,19.9708,VALID,152,VALID,0.977121,
2007-05-30, 00:29:00,VALID,917.9,VALID,0,VALID,100,VALID,0,VALID,19.9703,VALID,152,VALID,0.756359,
2007-05-30, 00:30:00,VALID,917.869,VALID,0,VALID,100,VALID,0,VALID,19.9736,VALID,152,VALID,0.607955,
2007-05-30, 00:31:00,VALID,917.859,VALID,0,VALID,100,VALID,0.0339617,VALID,19.9873,VALID,137,VALID,0.55692,
2007-05-30, 00:32:00,VALID,917.843,VALID,0,VALID,100,VALID,-0.0339617,VALID,19.9898,VALID,144,VALID,0.602307,
2007-05-30, 00:33:00,VALID,917.837,VALID,0,VALID,100,VALID,0,VALID,19.9903,VALID,144,VALID,1.08212,
2007-05-30, 00:34:00,VALID,917.826,VALID,0,VALID,100,VALID,0,VALID,19.9933,VALID,137,VALID,0.979167,
2007-05-30, 00:35:00,VALID,917.833,VALID,0,VALID,100,VALID,0,VALID,19.9871,VALID,139,VALID,0.822222,
2007-05-30, 00:36:00,VALID,917.827,VALID,0,VALID,100,VALID,0,VALID,19.9771,VALID,134,VALID,0.788132,
2007-05-30, 00:37:00,VALID,917.813,VALID,0,VALID,100,VALID,0,VALID,19.9773,VALID,123,VALID,0.936166,
2007-05-30, 00:38:00,VALID,917.809,VALID,0,VALID,100,VALID,0.0339617,VALID,20.0165,VALID,121,VALID,0.846475,
2007-05-30, 00:39:00,VALID,917.768,VALID,0,VALID,100,VALID,0,VALID,20.0228,VALID,121,VALID,0.870508,
2007-05-30, 00:40:00,VALID,917.736,VALID,0,VALID,100,VALID,0.0339617,VALID,20.0322,VALID,128,VALID,0.925071,
2007-05-30, 00:41:00,VALID,917.695,VALID,0,VALID,100,VALID,0.0169808,VALID,20.0387,VALID,131,VALID,0.825036,
2007-05-30, 00:42:00,VALID,917.678,VALID,0,VALID,100,VALID,0.0169808,VALID,20.0525,VALID,131,VALID,0.673147,
2007-05-30, 00:43:00,VALID,917.637,VALID,0,VALID,100,VALID,0.0169808,VALID,20.032,VALID,131,VALID,0.742014,
2007-05-30, 00:44:00,VALID,917.609,VALID,0,VALID,100,VALID,0,VALID,20.0228,VALID,131,VALID,0.76734,
2007-05-30, 00:45:00,VALID,917.591,VALID,0,VALID,100,VALID,0,VALID,20.0198,VALID,131,VALID,0.632622,
2007-05-30, 00:46:00,VALID,917.559,VALID,0,VALID,100,VALID,0.0169808,VALID,20.013,VALID,137,VALID,0.80814,
2007-05-30, 00:47:00,VALID,917.527,VALID,0,VALID,100,VALID,0,VALID,20.0068,VALID,137,VALID,0.804129,
2007-05-30, 00:48:00,VALID,917.513,VALID,0,VALID,100,VALID,0.0169808,VALID,19.9931,VALID,137,VALID,0.855824,
2007-05-30, 00:49:00,VALID,917.504,VALID,0,VALID,100,VALID,0,VALID,20.0033,VALID,137,VALID,1.012,
2007-05-30, 00:50:00,VALID,917.482,VALID,0,VALID,100,VALID,0,VALID,19.9866,VALID,144,VALID,0.800249,
2007-05-30, 00:51:00,VALID,917.479,VALID,0,VALID,100,VALID,0.0169808,VALID,19.9933,VALID,148,VALID,0.883333,
2007-05-30, 00:52:00,VALID,917.472,VALID,0,VALID,100,VALID,0,VALID,19.9998,VALID,145,VALID,0.691406,
2007-05-30, 00:53:00,VALID,917.468,VALID,0,VALID,100,VALID,0,VALID,19.9898,VALID,144,VALID,0.793501,
2007-05-30, 00:54:00,VALID,917.458,VALID,0,VALID,100,VALID,0.0169808,VALID,19.9738,VALID,143,VALID,1.02552,
2007-05-30, 00:55:00,VALID,917.44,VALID,0,VALID,100,VALID,0.0169808,VALID,19.9741,VALID,139,VALID,0.885938,
2007-05-30, 00:56:00,VALID,917.429,VALID,0,VALID,100,VALID,0,VALID,19.9609,VALID,127,VALID,0.942708,
2007-05-30, 00:57:00,VALID,917.428,VALID,0,VALID,100,VALID,0.0169808,VALID,19.9479,VALID,125,VALID,0.907774,
2007-05-30, 00:58:00,VALID,917.413,VALID,0,VALID,100,VALID,0.0169808,VALID,19.9317,VALID,121,VALID,0.880451,
2007-05-30, 00:59:00,VALID,917.436,VALID,0,VALID,100,VALID,-0.0679233,VALID,19.9262,VALID,121,VALID,1.00641,
2007-05-30, 01:00:00,VALID,917.437,VALID,0,VALID,100,VALID,-0.101885,VALID,19.9267,VALID,122,VALID,0.88529,
2007-05-30, 01:01:00,VALID,917.426,VALID,0,VALID,100,VALID,-0.101885,VALID,19.9234,VALID,129,VALID,0.926417,
2007-05-30, 01:02:00,VALID,917.42,VALID,0,VALID,100,VALID,-0.101885,VALID,19.9234,VALID,142,VALID,0.975497,
2007-05-30, 01:03:00,VALID,917.396,VALID,0,VALID,100,VALID,-0.101885,VALID,19.917,VALID,156,VALID,1.07757,
2007-05-30, 01:04:00,VALID,917.371,VALID,0.2,VALID,100,VALID,-0.101885,VALID,19.9135,VALID,152,VALID,1.2862,
2007-05-30, 01:05:00,VALID,917.348,VALID,0,VALID,100,VALID,-0.101885,VALID,19.9232,VALID,144,VALID,1.19023,
2007-05-30, 01:06:00,VALID,917.338,VALID,0,VALID,100,VALID,-0.0849042,VALID,19.9394,VALID,153,VALID,0.995313,
2007-05-30, 01:07:00,VALID,917.316,VALID,0,VALID,100,VALID,-0.101885,VALID,19.9526,VALID,153,VALID,1.12837,
2007-05-30, 01:08:00,VALID,917.297,VALID,0,VALID,100,VALID,-0.101885,VALID,19.9589,VALID,151,VALID,1.11137,
2007-05-30, 01:09:00,VALID,917.29,VALID,0,VALID,100,VALID,-0.0509425,VALID,19.9716,VALID,143,VALID,1.05796,
2007-05-30, 01:10:00,VALID,917.278,VALID,0,VALID,100,VALID,-0.101885,VALID,19.9686,VALID,140,VALID,0.998285,
2007-05-30, 01:11:00,VALID,917.273,VALID,0,VALID,100,VALID,-0.101885,VALID,19.9491,VALID,125,VALID,1.19646,
2007-05-30, 01:12:00,VALID,917.272,VALID,0,VALID,100,VALID,-0.101885,VALID,19.9359,VALID,129,VALID,1.05707,
2007-05-30, 01:13:00,VALID,917.269,VALID,0,VALID,100,VALID,-0.0509425,VALID,19.9164,VALID,135,VALID,1.16044,
2007-05-30, 01:14:00,VALID,917.265,VALID,0,VALID,100,VALID,-0.0169808,VALID,19.9164,VALID,137,VALID,1.00818,
2007-05-30, 01:15:00,VALID,917.264,VALID,0,VALID,100,VALID,-0.101885,VALID,19.9132,VALID,130,VALID,1.31019,
2007-05-30, 01:16:00,VALID,917.257,VALID,0,VALID,100,VALID,-0.101885,VALID,19.9102,VALID,123,VALID,1.19989,
2007-05-30, 01:17:00,VALID,917.259,VALID,0,VALID,100,VALID,-0.101885,VALID,19.9105,VALID,120,VALID,1.20071,
2007-05-30, 01:18:00,VALID,917.258,VALID,0,VALID,100,VALID,-0.101885,VALID,19.9102,VALID,120,VALID,1.28072,
2007-05-30, 01:19:00,VALID,917.245,VALID,0,VALID,100,VALID,-0.101885,VALID,19.9137,VALID,114,VALID,1.21285,
2007-05-30, 01:20:00,VALID,917.248,VALID,0,VALID,100,VALID,-0.118866,VALID,19.9204,VALID,108,VALID,0.895461,
2007-05-30, 01:21:00,VALID,917.24,VALID,0,VALID,100,VALID,-0.101885,VALID,19.9209,VALID,97,VALID,0.736737,
2007-05-30, 01:22:00,VALID,917.23,VALID,0,VALID,100,VALID,-0.101885,VALID,19.9107,VALID,82,VALID,0.759588,
2007-05-30, 01:23:00,VALID,917.224,VALID,0,VALID,100,VALID,-0.101885,VALID,19.9007,VALID,108,VALID,0.618304,
2007-05-30, 01:24:00,VALID,917.215,VALID,0,VALID,100,VALID,-0.0849042,VALID,19.894,VALID,116,VALID,0.531432,
2007-05-30, 01:25:00,VALID,917.21,VALID,0,VALID,100,VALID,-0.101885,VALID,19.881,VALID,124,VALID,0.617374,
2007-05-30, 01:26:00,VALID,917.193,VALID,0,VALID,100,VALID,-0.135847,VALID,19.8977,VALID,138,VALID,0.834484,
2007-05-30, 01:27:00,VALID,917.18,VALID,0,VALID,100,VALID,-0.118866,VALID,19.9077,VALID,140,VALID,0.792791,
2007-05-30, 01:28:00,VALID,917.18,VALID,0,VALID,100,VALID,-0.0849042,VALID,19.9037,VALID,127,VALID,0.550037,
2007-05-30, 01:29:00,VALID,917.157,VALID,0,VALID,100,VALID,-0.0169808,VALID,19.9124,VALID,132,VALID,0.761979,
2007-05-30, 01:30:00,VALID,917.146,VALID,0,VALID,100,VALID,0,VALID,19.9152,VALID,121,VALID,0.651843,
2007-05-30, 01:31:00,VALID,917.133,VALID,0,VALID,100,VALID,0.0169808,VALID,19.9217,VALID,135,VALID,1.09412,
2007-05-30, 01:32:00,VALID,917.131,VALID,0,VALID,100,VALID,0,VALID,19.9349,VALID,111,VALID,0.731585,
2007-05-30, 01:33:00,VALID,917.135,VALID,0,VALID,100,VALID,0.0169808,VALID,19.9279,VALID,127,VALID,1.02717,
2007-05-30, 01:34:00,VALID,917.133,VALID,0,VALID,100,VALID,0,VALID,19.9219,VALID,133,VALID,0.782924,
2007-05-30, 01:35:00,VALID,917.121,VALID,0,VALID,100,VALID,0.0169808,VALID,19.9182,VALID,139,VALID,0.993712,
2007-05-30, 01:36:00,VALID,917.128,VALID,0,VALID,100,VALID,0,VALID,19.9314,VALID,142,VALID,0.928516,
2007-05-30, 01:37:00,VALID,917.11,VALID,0,VALID,100,VALID,0.0169808,VALID,19.9446,VALID,152,VALID,0.637429,
2007-05-30, 01:38:00,VALID,917.117,VALID,0,VALID,100,VALID,0.0679233,VALID,19.9506,VALID,151,VALID,0.696528,
2007-05-30, 01:39:00,VALID,917.101,VALID,0,VALID,100,VALID,-0.0169808,VALID,19.9544,VALID,156,VALID,0.803234,
2007-05-30, 01:40:00,VALID,917.099,VALID,0,VALID,100,VALID,0.0169808,VALID,19.9681,VALID,157,VALID,1.26982,
2007-05-30, 01:41:00,VALID,917.073,VALID,0,VALID,100,VALID,0,VALID,19.9714,VALID,148,VALID,0.830171,
2007-05-30, 01:42:00,VALID,917.086,VALID,0,VALID,100,VALID,0,VALID,19.9644,VALID,165,VALID,0.498326,
2007-05-30, 01:43:00,VALID,917.07,VALID,0,VALID,100,VALID,0.0169808,VALID,19.9609,VALID,150,VALID,1.0026,
2007-05-30, 01:44:00,VALID,917.062,VALID,0,VALID,100,VALID,0,VALID,19.9676,VALID,156,VALID,0.946075,
2007-05-30, 01:45:00,VALID,917.065,VALID,0,VALID,100,VALID,0.0169808,VALID,19.9509,VALID,143,VALID,0.775152,
2007-05-30, 01:46:00,VALID,917.062,VALID,0,VALID,100,VALID,0,VALID,19.9644,VALID,149,VALID,0.641197,
2007-05-30, 01:47:00,VALID,917.047,VALID,0,VALID,100,VALID,0.0339617,VALID,19.9544,VALID,150,VALID,0.788517,
2007-05-30, 01:48:00,VALID,917.049,VALID,0,VALID,100,VALID,0.0169808,VALID,19.9541,VALID,152,VALID,0.637305,
2007-05-30, 01:49:00,VALID,917.034,VALID,0,VALID,100,VALID,0.0169808,VALID,19.9509,VALID,154,VALID,0.444041,
2007-05-30, 01:50:00,VALID,917.022,VALID,0,VALID,100,VALID,0.0169808,VALID,19.9641,VALID,153,VALID,0.69077,
2007-05-30, 01:51:00,VALID,917.021,VALID,0,VALID,100,VALID,0.0339617,VALID,19.9639,VALID,149,VALID,0.709121,
2007-05-30, 01:52:00,VALID,916.996,VALID,0,VALID,100,VALID,0.0169808,VALID,19.9671,VALID,140,VALID,0.828125,
2007-05-30, 01:53:00,VALID,916.971,VALID,0,VALID,100,VALID,0,VALID,19.9801,VALID,137,VALID,1.12555,
2007-05-30, 01:54:00,VALID,916.962,VALID,0,VALID,100,VALID,0.0169808,VALID,19.9833,VALID,132,VALID,1.03232,
2007-05-30, 01:55:00,VALID,916.937,VALID,0,VALID,100,VALID,0.0339617,VALID,20.016,VALID,132,VALID,1.02274,
2007-05-30, 01:56:00,VALID,916.943,VALID,0,VALID,100,VALID,0.0169808,VALID,20.019,VALID,132,VALID,0.960582,
2007-05-30, 01:57:00,VALID,916.93,VALID,0,VALID,100,VALID,0.0339617,VALID,20.0385,VALID,123,VALID,0.900036,
2007-05-30, 01:58:00,VALID,916.923,VALID,0,VALID,100,VALID,0.0339617,VALID,20.048,VALID,110,VALID,0.900799,
2007-05-30, 01:59:00,VALID,916.911,VALID,0,VALID,100,VALID,-0.0509425,VALID,20.0625,VALID,117,VALID,0.865767,
2007-05-30, 02:00:00,VALID,916.891,VALID,0,VALID,100,VALID,-0.0509425,VALID,20.0665,VALID,113,VALID,0.820676,
2007-05-30, 02:01:00,VALID,916.884,VALID,0,VALID,100,VALID,-0.0339617,VALID,20.0695,VALID,106,VALID,0.689024,
2007-05-30, 02:02:00,VALID,916.859,VALID,0,VALID,100,VALID,-0.0509425,VALID,20.0527,VALID,118,VALID,0.591264,
2007-05-30, 02:03:00,VALID,916.831,VALID,0,VALID,100,VALID,-0.0339617,VALID,20.053,VALID,120,VALID,0.604759,
2007-05-30, 02:04:00,VALID,916.815,VALID,0,VALID,100,VALID,-0.0849042,VALID,20.0562,VALID,124,VALID,0.569586,
2007-05-30, 02:05:00,VALID,916.787,VALID,0,VALID,100,VALID,-0.0339617,VALID,20.0495,VALID,126,VALID,0.543146,
2007-05-30, 02:06:00,VALID,916.774,VALID,0,VALID,100,VALID,-0.0849042,VALID,20.043,VALID,126,VALID,0.517045,
2007-05-30, 02:07:00,VALID,916.744,VALID,0,VALID,100,VALID,-0.0509425,VALID,20.0368,VALID,126,VALID,0.533975,
2007-05-30, 02:08:00,VALID,916.73,VALID,0,VALID,100,VALID,-0.0339617,VALID,20.03,VALID,126,VALID,0.722842,
2007-05-30, 02:09:00,VALID,916.723,VALID,0,VALID,100,VALID,-0.0679233,VALID,20.0303,VALID,121,VALID,0.661086,
2007-05-30, 02:10:00,VALID,916.738,VALID,0,VALID,100,VALID,-0.0509425,VALID,20.0303,VALID,109,VALID,0.650036,
2007-05-30, 02:11:00,VALID,916.738,VALID,0,VALID,100,VALID,-0.0509425,VALID,20.04,VALID,109,VALID,0.708398,
2007-05-30, 02:12:00,VALID,916.733,VALID,0,VALID,100,VALID,-0.0679233,VALID,20.043,VALID,101,VALID,0.6121,
2007-05-30, 02:13:00,VALID,916.729,VALID,0,VALID,100,VALID,-0.0339617,VALID,20.0338,VALID,92,VALID,0.758789,
2007-05-30, 02:14:00,VALID,916.704,VALID,0,VALID,100,VALID,-0.0169808,VALID,20.0208,VALID,88,VALID,0.830729,
2007-05-30, 02:15:00,VALID,916.698,VALID,0,VALID,100,VALID,-0.0849042,VALID,19.9978,VALID,84,VALID,0.767442,
2007-05-30, 02:16:00,VALID,916.69,VALID,0,VALID,100,VALID,-0.0679233,VALID,19.9783,VALID,80,VALID,0.696007,
2007-05-30, 02:17:00,VALID,916.686,VALID,0,VALID,100,VALID,-0.0849042,VALID,19.9491,VALID,82,VALID,0.579492,
2007-05-30, 02:18:00,VALID,916.682,VALID,0,VALID,100,VALID,-0.0849042,VALID,19.9264,VALID,88,VALID,0.573438,
2007-05-30, 02:19:00,VALID,916.681,VALID,0,VALID,100,VALID,-0.0679233,VALID,19.9137,VALID,88,VALID,0.141667,
2007-05-30, 02:20:00,VALID,916.679,VALID,0,VALID,100,VALID,-0.0339617,VALID,19.9072,VALID,88,VALID,0.0325521,
2007-05-30, 02:21:00,VALID,916.671,VALID,0,VALID,100,VALID,-0.0849042,VALID,19.894,VALID,88,VALID,0.0570494,
2007-05-30, 02:22:00,VALID,916.665,VALID,0,VALID,100,VALID,-0.101885,VALID,19.8845,VALID,88,VALID,0,
2007-05-30, 02:23:00,VALID,916.65,VALID,0,VALID,100,VALID,-0.0509425,VALID,19.878,VALID,88,VALID,0,
2007-05-30, 02:24:00,VALID,916.632,VALID,0,VALID,100,VALID,-0.0679233,VALID,19.8743,VALID,88,VALID,0,
2007-05-30, 02:25:00,VALID,916.614,VALID,0,VALID,100,VALID,-0.0679233,VALID,19.901,VALID,88,VALID,0,
2007-05-30, 02:26:00,VALID,916.612,VALID,0,VALID,100,VALID,-0.0339617,VALID,19.8907,VALID,88,VALID,0,
2007-05-30, 02:27:00,VALID,916.601,VALID,0,VALID,100,VALID,-0.0849042,VALID,19.8875,VALID,88,VALID,0,
2007-05-30, 02:28:00,VALID,916.588,VALID,0,VALID,100,VALID,-0.0339617,VALID,19.8775,VALID,88,VALID,0,
2007-05-30, 02:29:00,VALID,916.58,VALID,0,VALID,100,VALID,-0.0849042,VALID,19.881,VALID,88,VALID,0,
2007-05-30, 02:30:00,VALID,916.587,VALID,0,VALID,100,VALID,-0.0509425,VALID,19.8683,VALID,88,VALID,0.0731534,
2007-05-30, 02:31:00,VALID,916.589,VALID,0,VALID,100,VALID,-0.101885,VALID,19.855,VALID,88,VALID,0.0773983,
2007-05-30, 02:32:00,VALID,916.597,VALID,0,VALID,100,VALID,-0.0679233,VALID,19.855,VALID,88,VALID,0.16997,
2007-05-30, 02:33:00,VALID,916.593,VALID,0,VALID,100,VALID,-0.0849042,VALID,19.8488,VALID,88,VALID,0.195131,
2007-05-30, 02:34:00,VALID,916.609,VALID,0,VALID,100,VALID,-0.0849042,VALID,19.8326,VALID,88,VALID,0.0679348,
2007-05-30, 02:35:00,VALID,916.59,VALID,0,VALID,100,VALID,-0.0679233,VALID,19.8096,VALID,88,VALID,0.390816,
2007-05-30, 02:36:00,VALID,916.586,VALID,0,VALID,100,VALID,-0.101885,VALID,19.8099,VALID,116,VALID,0.520419,
2007-05-30, 02:37:00,VALID,916.573,VALID,0,VALID,100,VALID,-0.0509425,VALID,19.8194,VALID,119,VALID,0.507457,
2007-05-30, 02:38:00,VALID,916.576,VALID,0,VALID,100,VALID,-0.0509425,VALID,19.8161,VALID,146,VALID,0.609375,
2007-05-30, 02:39:00,VALID,916.565,VALID,0,VALID,100,VALID,-0.0679233,VALID,19.8326,VALID,156,VALID,0.421689,
2007-05-30, 02:40:00,VALID,916.571,VALID,0,VALID,100,VALID,-0.0679233,VALID,19.8358,VALID,156,VALID,0.0408794,
2007-05-30, 02:41:00,VALID,916.568,VALID,0,VALID,100,VALID,-0.0849042,VALID,19.8258,VALID,156,VALID,0,
2007-05-30, 02:42:00,VALID,916.569,VALID,0,VALID,100,VALID,-0.0509425,VALID,19.8229,VALID,156,VALID,0,
2007-05-30, 02:43:00,VALID,916.569,VALID,0,VALID,100,VALID,-0.101885,VALID,19.8293,VALID,156,VALID,0,
2007-05-30, 02:44:00,VALID,916.561,VALID,0,VALID,100,VALID,0.0169808,VALID,19.8251,VALID,156,VALID,0,
2007-05-30, 02:45:00,VALID,916.556,VALID,0,VALID,100,VALID,0,VALID,19.8213,VALID,156,VALID,0,
2007-05-30, 02:46:00,VALID,916.547,VALID,0,VALID,100,VALID,0.0679233,VALID,19.8308,VALID,156,VALID,0.0764509,
2007-05-30, 02:47:00,VALID,916.532,VALID,0,VALID,100,VALID,0.0169808,VALID,19.8084,VALID,108,VALID,0.475991,
2007-05-30, 02:48:00,VALID,916.548,VALID,0,VALID,100,VALID,0.0509425,VALID,19.7759,VALID,82,VALID,0.690104,
2007-05-30, 02:49:00,VALID,916.559,VALID,0,VALID,100,VALID,0.0339617,VALID,19.7465,VALID,76,VALID,0.828658,
2007-05-30, 02:50:00,VALID,916.558,VALID,0,VALID,100,VALID,0,VALID,19.7275,VALID,75,VALID,0.867708,
2007-05-30, 02:51:00,VALID,916.562,VALID,0,VALID,100,VALID,0.0339617,VALID,19.7213,VALID,74,VALID,0.914063,
2007-05-30, 02:52:00,VALID,916.564,VALID,0,VALID,100,VALID,0,VALID,19.6948,VALID,77,VALID,0.845238,
2007-05-30, 02:53:00,VALID,916.55,VALID,0,VALID,100,VALID,0.0339617,VALID,19.6783,VALID,82,VALID,0.800347,
2007-05-30, 02:54:00,VALID,916.524,VALID,0,VALID,100,VALID,0.0169808,VALID,19.6621,VALID,97,VALID,0.886628,
2007-05-30, 02:55:00,VALID,916.503,VALID,0,VALID,100,VALID,0.0339617,VALID,19.6818,VALID,107,VALID,0.806504,
2007-05-30, 02:56:00,VALID,916.487,VALID,0,VALID,100,VALID,0,VALID,19.6821,VALID,108,VALID,0.593359,
2007-05-30, 02:57:00,VALID,916.465,VALID,0,VALID,100,VALID,0.0169808,VALID,19.6851,VALID,106,VALID,0.800409,
2007-05-30, 02:58:00,VALID,916.46,VALID,0,VALID,100,VALID,0,VALID,19.6818,VALID,102,VALID,0.673921,
2007-05-30, 02:59:00,VALID,916.451,VALID,0,VALID,100,VALID,-0.0509425,VALID,19.6793,VALID,96,VALID,0.647166,
2007-05-30, 03:00:00,VALID,916.45,VALID,0,VALID,100,VALID,-0.0509425,VALID,19.6701,VALID,78,VALID,0.889863,
2007-05-30, 03:01:00,VALID,916.463,VALID,0,VALID,100,VALID,-0.0679233,VALID,19.6574,VALID,77,VALID,0.837296,
2007-05-30, 03:02:00,VALID,916.477,VALID,0,VALID,100,VALID,-0.0339617,VALID,19.6377,VALID,88,VALID,0.830983,
2007-05-30, 03:03:00,VALID,916.499,VALID,0,VALID,100,VALID,-0.0849042,VALID,19.6279,VALID,106,VALID,1.0483,
2007-05-30, 03:04:00,VALID,916.499,VALID,0,VALID,100,VALID,-0.0509425,VALID,19.6409,VALID,121,VALID,1.1375,
2007-05-30, 03:05:00,VALID,916.498,VALID,0,VALID,100,VALID,-0.0509425,VALID,19.6437,VALID,130,VALID,0.992374,
2007-05-30, 03:06:00,VALID,916.484,VALID,0,VALID,100,VALID,-0.0509425,VALID,19.6636,VALID,133,VALID,1.21627,
2007-05-30, 03:07:00,VALID,916.472,VALID,0,VALID,100,VALID,-0.0339617,VALID,19.6731,VALID,130,VALID,1.22017,
2007-05-30, 03:08:00,VALID,916.455,VALID,0,VALID,100,VALID,-0.0339617,VALID,19.6661,VALID,141,VALID,1.18423,
2007-05-30, 03:09:00,VALID,916.447,VALID,0,VALID,100,VALID,-0.0169808,VALID,19.6564,VALID,139,VALID,1.08574,
2007-05-30, 03:10:00,VALID,916.429,VALID,0,VALID,100,VALID,-0.0339617,VALID,19.6666,VALID,145,VALID,1.05487,
2007-05-30, 03:11:00,VALID,916.431,VALID,0,VALID,100,VALID,-0.0169808,VALID,19.6726,VALID,148,VALID,1.20508,
2007-05-30, 03:12:00,VALID,916.43,VALID,0,VALID,100,VALID,-0.0679233,VALID,19.6891,VALID,137,VALID,1.37459,
2007-05-30, 03:13:00,VALID,916.422,VALID,0,VALID,100,VALID,-0.0169808,VALID,19.7123,VALID,138,VALID,1.37184,
2007-05-30, 03:14:00,VALID,916.424,VALID,0,VALID,100,VALID,0,VALID,19.722,VALID,134,VALID,1.14807,
2007-05-30, 03:15:00,VALID,916.423,VALID,0,VALID,100,VALID,-0.101885,VALID,19.7123,VALID,137,VALID,1.14099,
2007-05-30, 03:16:00,VALID,916.422,VALID,0,VALID,100,VALID,-0.0509425,VALID,19.7153,VALID,147,VALID,1.10938,
2007-05-30, 03:17:00,VALID,916.424,VALID,0,VALID,100,VALID,-0.0339617,VALID,19.709,VALID,140,VALID,1.44401,
2007-05-30, 03:18:00,VALID,916.414,VALID,0,VALID,100,VALID,-0.0509425,VALID,19.7021,VALID,142,VALID,1.43078,
2007-05-30, 03:19:00,VALID,916.427,VALID,0,VALID,100,VALID,-0.0849042,VALID,19.7123,VALID,148,VALID,1.28702,
2007-05-30, 03:20:00,VALID,916.433,VALID,0,VALID,100,VALID,-0.0849042,VALID,19.709,VALID,150,VALID,1.19959,
2007-05-30, 03:21:00,VALID,916.424,VALID,0,VALID,100,VALID,-0.0679233,VALID,19.7123,VALID,148,VALID,1.35392,
2007-05-30, 03:22:00,VALID,916.441,VALID,0,VALID,100,VALID,-0.101885,VALID,19.7253,VALID,144,VALID,0.947569,
2007-05-30, 03:23:00,VALID,916.455,VALID,0,VALID,100,VALID,-0.0509425,VALID,19.725,VALID,148,VALID,1.48765,
2007-05-30, 03:24:00,VALID,916.459,VALID,0,VALID,100,VALID,-0.0849042,VALID,19.7515,VALID,145,VALID,1.0266,
2007-05-30, 03:25:00,VALID,916.468,VALID,0,VALID,100,VALID,0,VALID,19.7475,VALID,149,VALID,1.31979,
2007-05-30, 03:26:00,VALID,916.458,VALID,0,VALID,100,VALID,-0.0169808,VALID,19.7475,VALID,144,VALID,1.19713,
2007-05-30, 03:27:00,VALID,916.482,VALID,0,VALID,100,VALID,-0.0169808,VALID,19.7542,VALID,147,VALID,0.979611,
2007-05-30, 03:28:00,VALID,916.468,VALID,0,VALID,100,VALID,-0.0339617,VALID,19.7407,VALID,148,VALID,1.02435,
2007-05-30, 03:29:00,VALID,916.463,VALID,0,VALID,100,VALID,-0.0679233,VALID,19.7447,VALID,142,VALID,1.24442,
2007-05-30, 03:30:00,VALID,916.464,VALID,0,VALID,100,VALID,-0.0679233,VALID,19.7512,VALID,147,VALID,1.16146,
2007-05-30, 03:31:00,VALID,916.467,VALID,0,VALID,100,VALID,-0.0169808,VALID,19.7607,VALID,150,VALID,0.922619,
2007-05-30, 03:32:00,VALID,916.479,VALID,0,VALID,100,VALID,-0.0679233,VALID,19.7772,VALID,156,VALID,1.20533,
2007-05-30, 03:33:00,VALID,916.49,VALID,0,VALID,100,VALID,-0.0679233,VALID,19.7739,VALID,155,VALID,0.993862,
2007-05-30, 03:34:00,VALID,916.507,VALID,0,VALID,100,VALID,-0.0339617,VALID,19.7902,VALID,161,VALID,1.17441,
2007-05-30, 03:35:00,VALID,916.516,VALID,0,VALID,100,VALID,-0.0849042,VALID,19.7966,VALID,153,VALID,0.891369,
2007-05-30, 03:36:00,VALID,916.527,VALID,0,VALID,100,VALID,-0.0339617,VALID,19.8031,VALID,160,VALID,1.20957,
2007-05-30, 03:37:00,VALID,916.538,VALID,0,VALID,100,VALID,-0.0849042,VALID,19.8064,VALID,164,VALID,1.25915,
2007-05-30, 03:38:00,VALID,916.556,VALID,0,VALID,100,VALID,-0.0679233,VALID,19.8129,VALID,160,VALID,1.23495,
2007-05-30, 03:39:00,VALID,916.566,VALID,0,VALID,100,VALID,-0.0509425,VALID,19.8064,VALID,159,VALID,1.20294,